• en France
  • Liste des pays
  • À 7 jours
  • Température de l'eau
  • Carte satellitaire
  • Carte météo
  • Widgets météo
  • user-avatar
    Se connecter

    Météo par heure à Tiranё

    Ce jour, 20 Septembre, Jeudi

    Heure Température Précipitation Vent Pression Humidité
    00:00 +23°C° 0 mm 1 m/s 756 mmHg 57%
    01:00 +23°C° 0 mm 1 m/s 756 mmHg 57%
    02:00 +23°C° 0 mm 1 m/s 756 mmHg 57%
    03:00 +23°C° 0 mm 1 m/s 756 mmHg 57%
    04:00 +22°C° 0 mm 1 m/s 756 mmHg 57%
    05:00 +23°C° 0 mm 2 m/s 756 mmHg 56%
    06:00 +24°C° 0 mm 2 m/s 756 mmHg 54%
    07:00 +25°C° 0 mm 2 m/s 756 mmHg 53%
    08:00 +27°C° 0 mm 1 m/s 756 mmHg 47%
    09:00 +30°C° 0 mm 1 m/s 756 mmHg 41%
    10:00 +32°C° 0 mm 1 m/s 756 mmHg 34%
    11:00 +32°C° 0 mm 1 m/s 755 mmHg 33%
    12:00 +34°C° 0 mm 2 m/s 755 mmHg 31%
    13:00 +34°C° 0 mm 3 m/s 755 mmHg 30%
    14:00 +34°C° 0 mm 3 m/s 755 mmHg 33%
    15:00 +33°C° 0 mm 3 m/s 754 mmHg 36%
    16:00 +31°C° 0 mm 3 m/s 754 mmHg 39%
    17:00 +29°C° 0 mm 2 m/s 754 mmHg 47%
    18:00 +27°C° 0 mm 1 m/s 754 mmHg 55%
    19:00 +22°C° 0 mm 0 m/s 755 mmHg 63%
    20:00 +24°C° 0 mm 1 m/s 755 mmHg 62%
    21:00 +24°C° 0 mm 1 m/s 755 mmHg 61%
    22:00 +24°C° 0 mm 1 m/s 755 mmHg 60%
    23:00 +23°C° 0 mm 1 m/s 755 mmHg 58%

    Demain, 21 Septembre, Vendredi

    Heure Température Précipitation Vent Pression Humidité
    00:00 +23°C° 0 mm 1 m/s 755 mmHg 56%
    01:00 +23°C° 0 mm 1 m/s 755 mmHg 54%
    02:00 +23°C° 0 mm 1 m/s 755 mmHg 53%
    03:00 +22°C° 0 mm 1 m/s 755 mmHg 52%
    04:00 +22°C° 0 mm 1 m/s 755 mmHg 51%
    05:00 +23°C° 0 mm 1 m/s 755 mmHg 50%
    06:00 +24°C° 0 mm 2 m/s 755 mmHg 48%
    07:00 +25°C° 0 mm 2 m/s 755 mmHg 47%
    08:00 +27°C° 0 mm 1 m/s 755 mmHg 42%
    09:00 +29°C° 0 mm 1 m/s 755 mmHg 38%
    10:00 +31°C° 0 mm 1 m/s 755 mmHg 33%
    11:00 +32°C° 0 mm 2 m/s 755 mmHg 33%
    12:00 +32°C° 0 mm 2 m/s 755 mmHg 32%
    13:00 +34°C° 0 mm 3 m/s 755 mmHg 31%
    14:00 +33°C° 0 mm 3 m/s 754 mmHg 35%
    15:00 +31°C° 0 mm 3 m/s 754 mmHg 38%
    16:00 +30°C° 0 mm 3 m/s 754 mmHg 42%
    17:00 +28°C° 0 mm 2 m/s 754 mmHg 50%
    18:00 +26°C° 0 mm 1 m/s 755 mmHg 58%
    19:00 +22°C° 0 mm 0 m/s 755 mmHg 66%
    20:00 +24°C° 0 mm 1 m/s 755 mmHg 67%
    21:00 +23°C° 0 mm 1 m/s 756 mmHg 68%
    22:00 +23°C° 0 mm 1 m/s 756 mmHg 69%
    23:00 +23°C° 0 mm 1 m/s 756 mmHg 68%

    Après-demain, 22 Septembre, Samedi

    Heure Température Précipitation Vent Pression Humidité
    00:00 +23°C° 0 mm 1 m/s 756 mmHg 68%
    01:00 +22°C° 0 mm 1 m/s 756 mmHg 68%
    02:00 +22°C° 0 mm 1 m/s 756 mmHg 68%
    03:00 +22°C° 0 mm 1 m/s 756 mmHg 67%
    04:00 +22°C° 0 mm 1 m/s 756 mmHg 67%
    05:00 +23°C° 0 mm 1 m/s 756 mmHg 63%
    06:00 +24°C° 0 mm 1 m/s 756 mmHg 59%
    07:00 +25°C° 0 mm 1 m/s 756 mmHg 56%
    08:00 +27°C° 0 mm 1 m/s 756 mmHg 50%
    09:00 +29°C° 0 mm 1 m/s 756 mmHg 43%
    10:00 +31°C° 0 mm 1 m/s 756 mmHg 37%
    11:00 +31°C° 0 mm 2 m/s 756 mmHg 36%
    12:00 +33°C° 0 mm 3 m/s 756 mmHg 34%
    13:00 +34°C° 0 mm 3 m/s 755 mmHg 33%
    14:00 +33°C° 0 mm 3 m/s 755 mmHg 36%
    15:00 +31°C° 0 mm 3 m/s 755 mmHg 39%
    16:00 +30°C° 0 mm 4 m/s 755 mmHg 42%
    17:00 +28°C° 0 mm 3 m/s 755 mmHg 50%
    18:00 +26°C° 0 mm 2 m/s 755 mmHg 58%
    19:00 +24°C° 0 mm 2 m/s 756 mmHg 66%
    20:00 +23°C° 0 mm 2 m/s 756 mmHg 66%
    21:00 +23°C° 0 mm 1 m/s 756 mmHg 65%
    22:00 +23°C° 0 mm 1 m/s 757 mmHg 65%
    23:00 +23°C° 0 mm 1 m/s 757 mmHg 64%

    23 Septembre, Dimanche

    Heure Température Précipitation Vent Pression Humidité
    00:00 +23°C° 0 mm 1 m/s 757 mmHg 63%
    01:00 +22°C° 0 mm 1 m/s 757 mmHg 62%
    02:00 +22°C° 0 mm 1 m/s 757 mmHg 61%
    03:00 +22°C° 0 mm 1 m/s 757 mmHg 60%
    04:00 +22°C° 0 mm 1 m/s 757 mmHg 59%
    05:00 +23°C° 0 mm 1 m/s 757 mmHg 56%
    06:00 +24°C° 0 mm 1 m/s 757 mmHg 54%
    07:00 +25°C° 0 mm 1 m/s 757 mmHg 51%
    08:00 +27°C° 0 mm 1 m/s 757 mmHg 45%
    09:00 +30°C° 0 mm 1 m/s 757 mmHg 39%
    10:00 +32°C° 0 mm 2 m/s 757 mmHg 33%
    11:00 +34°C° 0 mm 2 m/s 757 mmHg 32%
    12:00 +35°C° 0 mm 3 m/s 756 mmHg 30%
    13:00 +35°C° 0 mm 4 m/s 756 mmHg 29%
    14:00 +34°C° 0 mm 4 m/s 756 mmHg 32%
    15:00 +34°C° 0 mm 4 m/s 756 mmHg 35%
    16:00 +33°C° 0 mm 4 m/s 755 mmHg 37%
    17:00 +29°C° 0 mm 3 m/s 755 mmHg 46%
    18:00 +27°C° 0 mm 2 m/s 756 mmHg 55%
    19:00 +24°C° 0 mm 1 m/s 756 mmHg 63%
    20:00 +24°C° 0 mm 1 m/s 756 mmHg 63%
    21:00 +24°C° 0 mm 1 m/s 756 mmHg 62%
    22:00 +24°C° 0 mm 1 m/s 756 mmHg 62%
    23:00 +24°C° 0 mm 2 m/s 755 mmHg 61%

    24 Septembre, Lundi

    Heure Température Précipitation Vent Pression Humidité
    00:00 +23°C° 0 mm 2 m/s 755 mmHg 61%
    01:00 +23°C° 0 mm 2 m/s 755 mmHg 61%
    02:00 +23°C° 0 mm 2 m/s 754 mmHg 62%
    03:00 +21°C° 0 mm 2 m/s 754 mmHg 62%
    04:00 +21°C° 0 mm 3 m/s 754 mmHg 62%
    05:00 +22°C° 0 mm 3 m/s 753 mmHg 58%
    06:00 +23°C° 0 mm 4 m/s 753 mmHg 55%
    07:00 +25°C° 0 mm 4 m/s 753 mmHg 51%
    08:00 +27°C° 0 mm 4 m/s 753 mmHg 45%
    09:00 +29°C° 0 mm 5 m/s 752 mmHg 40%
    10:00 +32°C° 0 mm 5 m/s 752 mmHg 34%
    11:00 +32°C° 0 mm 5 m/s 752 mmHg 35%
    12:00 +33°C° 0 mm 5 m/s 751 mmHg 35%
    13:00 +33°C° 0 mm 5 m/s 751 mmHg 35%
    14:00 +33°C° 0 mm 5 m/s 751 mmHg 38%
    15:00 +32°C° 0 mm 5 m/s 751 mmHg 42%
    16:00 +30°C° 0 mm 5 m/s 751 mmHg 46%
    17:00 +28°C° 0 mm 4 m/s 751 mmHg 55%
    18:00 +26°C° 0 mm 3 m/s 752 mmHg 65%
    19:00 +24°C° 0 mm 2 m/s 752 mmHg 74%
    20:00 +22°C° 0.1 mm 3 m/s 752 mmHg 72%
    21:00 +22°C° 0.1 mm 3 m/s 753 mmHg 70%
    22:00 +21°C° 0.1 mm 3 m/s 753 mmHg 68%
    23:00 +21°C° 0 mm 4 m/s 753 mmHg 66%

    25 Septembre, Mardi

    Heure Température Précipitation Vent Pression Humidité
    00:00 +20°C° 0 mm 4 m/s 753 mmHg 63%
    01:00 +19°C° 0 mm 5 m/s 753 mmHg 61%
    02:00 +19°C° 0 mm 5 m/s 754 mmHg 59%
    03:00 +17°C° 0 mm 6 m/s 754 mmHg 57%
    04:00 +16°C° 0 mm 6 m/s 754 mmHg 55%
    05:00 +17°C° 0.1 mm 7 m/s 755 mmHg 54%
    06:00 +17°C° 0.1 mm 7 m/s 755 mmHg 53%
    07:00 +17°C° 0.1 mm 8 m/s 756 mmHg 52%
    08:00 +17°C° 0 mm 8 m/s 756 mmHg 52%
    09:00 +17°C° 0 mm 7 m/s 756 mmHg 52%
    10:00 +17°C° 0 mm 7 m/s 756 mmHg 52%
    11:00 +20°C° 0 mm 6 m/s 756 mmHg 48%
    12:00 +22°C° 0 mm 6 m/s 756 mmHg 43%
    13:00 +23°C° 0 mm 6 m/s 756 mmHg 38%
    14:00 +23°C° 0 mm 6 m/s 756 mmHg 37%
    15:00 +23°C° 0 mm 7 m/s 756 mmHg 35%
    16:00 +23°C° 0 mm 7 m/s 756 mmHg 34%
    17:00 +21°C° 0 mm 8 m/s 756 mmHg 38%
    18:00 +18°C° 0 mm 8 m/s 757 mmHg 42%
    19:00 +16°C° 0 mm 9 m/s 758 mmHg 46%
    20:00 +15°C° 0 mm 9 m/s 758 mmHg 45%
    21:00 +13°C° 0 mm 9 m/s 758 mmHg 45%
    22:00 +12°C° 0 mm 9 m/s 759 mmHg 45%
    23:00 +11°C° 0 mm 8 m/s 759 mmHg 46%
    Voir plus